Location: Calais Saint-Pierre
(50.9509°N, 1.8522°E)
Time: 15:02:20
(UTC+00:00)

Cosmos 1271 Rocket - Pass Details

Date: 15 May 2026
Orbit: 421 x 447 km, 81.2° (Epoch: 10 June)

Event Time Altitude Azimuth Distance (km) Brightness Sun altitude
Exits shadow 23:40:04 24° 263° (W) 964 4.0 -20.0°
Maximum altitude 23:40:57 27° 290° (WNW) 883 4.1 -20.0°
Drops below altitude 10° 23:43:53 10° 351° (N) 1,554 6.3 -20.0°
Sets 23:46:09 0° 4° (N) 2,422 7.7 -20.0°
